If you wish to contribute or participate in the discussions about articles you are invited to join SKYbrary as a registered user

 Actions

Almería International Airport

From SKYbrary Wiki

LEAM
Airport
ICAO: LEAM – IATA: LEI
Summary
Name Almería International Airport
Region Europe
Territory Spain ES.gif
Location , Andalucia
Serving Almeria
Elevation 21.336 m
70 ft
70 ft21.336 m
Type medium airport
Coordinates 36° 50' 38.1696", -2° 22' 12.3492"
Close to Alboran Sea
Runways
Designator Length Width Surface ROPS
8/26 3200 m10,498.688 ft 45 m147.638 ft ASP no/no


METAR
Observation LEAM 191430Z 10018G28KT 060V130 CAVOK 29/14 Q1019
Station Almeria / Aeropuerto
Date/Time 19 June 2018 14:30:00
Wind direction 100°
Wind speed 18 kts
Lowest cloud amount clouds and visibility OK
Temperature 29°C
Dew point 14°C
Humidity 39%
QNH 1019 hPa
Weather condition n/a